761  
ASUS42 KMHX 262224  
RWRMHX  
WEATHER ROUNDUP FOR EASTERN NORTH CAROLINA  
NATIONAL WEATHER SERVICE NEWPORT/MOREHEAD CITY NC  
500 PM EST THU FEB 26 2015  
 
NOTE: "FAIR" INDICATES FEW OR NO CLOUDS BELOW 12,000 FEET  
WITH NO SIGNIFICANT WEATHER AND/OR S TO VISIBILITY
 
 
NCZ015>017-031-032-045>047-102-103-262300-  
NORTH COAST  
 
CITY SKY/WX TMP DP RH WIND PRES REMARKS
 
EDENTON CLOUDY 33 31 91 N10 29.98R  
ELIZABETH CITY NOT AVBL  
KITTY HAWK CLOUDY 32 32 100 N12G25 29.90R FOG  
MANTEO CLOUDY 32 32 100 N15G28 29.93R FOG  
 

 
 
NCZ045>047-081-094-103-104-262300-  
CENTRAL COAST  
 
CITY SKY/WX TMP DP RH WIND PRES REMARKS
 
FRISCO CLOUDY 35 34 96 N8G22 29.89R  
SWANQUARTER N/A 36 N/A N/A N5G17 29.91R  
 

 
 
NCZ095-097-098-100-101-262300-  
SOUTHERN COAST  
 
CITY SKY/WX TMP DP RH WIND PRES REMARKS
 
BEAUFORT CLOUDY 37 34 89 N14 29.94R  
CEDAR ISLAND N/A 36 N/A N/A NW18G26 29.97R  
JACKSONVILLE CLOUDY 37 32 82 NW12 29.98R  
PINEY ISLAND N/A N/A N/A N/A MISG 29.93R  
WILMINGTON CLOUDY 39 33 79 N12 29.97R  
 

 
 
NCZ011>013-027>030-043-044-078>080-089-090>093-098-262300-  
COASTAL PLAIN  
 
CITY SKY/WX TMP DP RH WIND PRES REMARKS
 
AHOSKIE MIX PCPN 33 32 95 N7 29.99R  
CLINTON CLOUDY 37 33 88 N7 30.00R  
ELIZABETHTOWN CLOUDY 38 33 81 NW3 29.99R  
GOLDSBORO CLOUDY 36 36 98 N9 29.97R  
GREENVILLE CLOUDY 34 32 93 N5 30.00R  
HAVELOCK CLOUDY 37 32 82 N15 29.96R  
KENANSVILLE CLOUDY 36 32 86 N9 29.99R  
KINSTON CLOUDY 36 34 93 N8 29.99R FOG  
NEW BERN CLOUDY 37 32 82 N8 29.97R  
RICHLANDS CLOUDY 36 30 80 N8 29.99R  
ROCKY MOUNT CLOUDY 35 31 85 N7 30.00R  
WASHINGTON CLOUDY 35 32 91 N9 29.98R  
WHITEVILLE CLOUDY 39 33 78 N3 29.98R  
 

 
 
AMZ130-135-150-152-154-156-158-170-250-252-270-ANZ085-086-088-633-658-670-262300-  
MARINE OBSERVATIONS  
 
STATION/POSITION TIME TEMP WIND PRES WAVE SWELL
 
AIR SEA DIR/SP/G HT/PER HT/PER  
(UTC) (F) (DEG/KT/KT) (MB) (FT/S) (FT/S)  
CHESAPEAKE LIGHT 2200 31 10/ 25/ 28 1014.5  
64 E VA BEACH 2150 44 57 360/ 27/ 33 1010.0 16/10 13/10  
DUCK 2200 32 35 10/ 29/ 35 1011.9  
2 E DUCK 2211 35 N/A 11/ 9 3/11  
10 NE DUCK 2122 38 N/A 11/ 9 3/11  
OREGON INLET 2200 33 37 340/ 19/ 25 1012.7  
HATTERAS CG 2200 35 41 340/ 26/ 29 1012.4  
CAPE LOOKOUT 2200 37 350/ 16/ 19 1013.4  
BEAUFORT LAB 2200 37 40 350/ 11/ 18 1012.9  
27 SE WRIGHTSVLE NOT AVBL  
5 SE WRIGHTSVLE NOT AVBL  
225 S CAPE HAT 2150 66 70 280/ 19/ 25 1010.3 15/11 13/11  
41 SE CHARLESTON 2150 46 65 350/ 16/ 19 1013.9 6/11 5/11  
 

 
 
CLICK HERE TO GO TO PREVIOUS BULLETINS.

The Nexlab NC Page Main Text Page